Location: Waco, TX
(31.5480°N, 97.1670°W)
Time: 10:37:52
(UTC-05:00)

ISS - Pass Details

Date: 13 February 2019
Orbit: 411 x 421 km, 51.6° (Epoch: 21 October)

Event Time Altitude Azimuth Distance (km) Brightness Sun altitude
Rises 17:32:05 0° 314° (NW) 2,408 0.5 7.6°
Reaches altitude 10° 17:34:12 10° 314° (NW) 1,541 -0.5 7.2°
Maximum altitude 17:37:40 84° 226° (SW) 441 -3.4 6.5°
Drops below altitude 10° 17:41:07 10° 138° (SE) 1,536 -1.1 5.8°
Sets 17:43:14 0° 138° (SE) 2,401 -0.1 5.4°
